Regional Weather Roundup
Issued by NWS

Home | Current Version | Previous Version | Text Only | Print | Product List | Glossary On
Versions: 1 2 3 4 5 6 7 8 9 10 11 12 13 14 15 16 17 18 19 20 21 22 23 24 25 26 27 28 29 30 31 32 33 34 35 36 37 38 39 40 41 42 43 44 45 46 47 48 49 50
000
ASUS45 KPSR 022000
RWRAZ

PRELIMINARY ARIZONA REGIONAL HOURLY WEATHER ROUNDUP
NATIONAL WEATHER SERVICE PHOENIX AZ
100 PM MST MON MAR 02 2015

NOTE: FAIR INDICATES FEW OR NO CLOUDS BELOW 12,000 FEET WITH NO
SIGNIFICANT WEATHER AND/OR OBSTRUCTIONS TO VISIBILITY.

AZZ001>003-036-022100-
NORTHWEST ARIZONA

CITY           SKY/WX    TMP DP  RH WIND       PRES   REMARKS
KINGMAN        PTSUNNY   48  41  76 SW23      29.85F
$$

AZZ004>008-015-016-018-022100-
NORTH CENTRAL ARIZONA

CITY           SKY/WX    TMP DP  RH WIND       PRES   REMARKS
GRAND CANYON   SNOW      31  30  96 SW16      29.82F VSB 1/2 WCI  20
PRESCOTT       LGT SNOW  34  31  88 S5        29.88F FOG     WCI  30
FLAGSTAFF      NOT AVBL
PAYSON         MIX PCPN  43  41  93 S10G20    29.90S
PAGE           PTSUNNY   46  38  73 VRB3      29.76F
$$

AZZ009>014-017-022100-
NORTHEAST ARIZONA

CITY           SKY/WX    TMP DP  RH WIND       PRES   REMARKS
WINSLOW        NOT AVBL
SAINT JOHNS    CLOUDY    58  34  40 SW20G25   29.85F
WINDOW ROCK    PTSUNNY   54  33  45 S30G41    29.85F
$$

AZZ023-022100-
GREATER PHOENIX AREA

CITY           SKY/WX    TMP DP  RH WIND       PRES   REMARKS
PHOENIX        LGT RAIN  53  48  83 W12       29.93S
GLENDALE       RAIN      52  48  87 CALM      29.96S
DEER VALLEY    LGT RAIN  50  46  86 NW3       29.93F FOG
SCOTTSDALE     RAIN      51  46  83 NW6       29.95F
MESA-FALCON    CLOUDY    48  48 100 W12       29.94S
CHANDLER       CLOUDY    52  48  87 W9        29.93F
$$

AZZ027-028-022100-
SOUTHWEST MARICOPA COUNTY AND PINAL COUNTY

CITY           SKY/WX    TMP DP  RH WIND       PRES   REMARKS
CASA GRANDE    CLOUDY    52  48  87 W13       29.94S
$$

AZZ503-504-507>509-022100-
SOUTHEAST ARIZONA

CITY           SKY/WX    TMP DP  RH WIND       PRES   REMARKS
TUCSON         CLOUDY    67  48  50 S20G32    29.92F
RYAN FIELD       N/A     68  48  49 S28G37    29.91F
NOGALES        LGT RAIN  60  48  64 SW23G31   29.98F
SIERRA VISTA   CLOUDY    61  43  51 S23G36    29.97F
SAFFORD        CLOUDY    67  41  38 S22G32    29.90F
$$

AZZ020-021-025-026-031-022100-
SOUTHWEST ARIZONA

CITY           SKY/WX    TMP DP  RH WIND       PRES   REMARKS
YUMA           PTSUNNY   63  49  60 S6        29.92F
$$

CAZ031-033-041-043-047-048-061-022100-
SOUTHERN CALIFORNIA

CITY           SKY/WX    TMP DP  RH WIND       PRES   REMARKS
DOWNTOWN L.A.  MOSUNNY   58  44  60 CALM      29.92F
L.A. AIRPORT   PTSUNNY   56  44  64 S6        29.92F
SAN DIEGO      MOSUNNY   60  46  59 S15       29.97R
BURBANK        SUNNY     56  41  57 CALM      29.90F
ONTARIO        RAIN      50  42  74 W10       29.92R
RIVERSIDE      HVY RAIN  50  43  77 SW22      29.93R
PALM SPRINGS   PTSUNNY   59  46  62 VRB5      29.91F
EL CENTRO NAS  PTSUNNY   64  44  48 SW13G20   29.91S
IMPERIAL       PTSUNNY   62  43  49 MISG      29.91S
BLYTHE         MOSUNNY   62  46  55 S14G22    29.90F
$$

NVZ020-UTZ003-022100-
SOUTHERN NEVADA-UTAH

CITY           SKY/WX    TMP DP  RH WIND       PRES   REMARKS
LAS VEGAS      NOT AVBL
SALT LAKE CITY CLOUDY    41  34  76 SW9       29.68F
$$

NMZ009-TXZ055-022100-
NEW MEXICO-WEST TEXAS

CITY           SKY/WX    TMP DP  RH WIND       PRES   REMARKS
ALBUQUERQUE    CLOUDY    53  33  46 S3        29.93F
EL PASO        CLOUDY    53  40  61 SW6       30.01F
$$


........................KEY........................
SKY/WX - SKY CONDITION/WEATHER
TMP    - TEMPERATURE IN FAHRENHEIT
DP     - DEW POINT IN FAHRENHEIT
RH     - RELATIVE HUMIDITY IN PERCENT
WIND   - DIRECTION AND SPEED IN MILES PER HOUR (MPH)
VRB    - VARIABLE WIND DIRECTION
PRES   - MEAN SEA LEVEL PRESSURE IN INCHES OF MERCURY
         F - FALLING PRESSURE   R - RISING PRESSURE
         S - STEADY PRESSURE
VSB    - VISIBILITY IN MILES
HX     - HEAT INDEX IN FAHRENHEIT
WCI    - WIND CHILL INDEX IN FAHRENHEIT
TC     - TEMPERATURE IN CELSIUS WHICH IS ALSO KNOWN AS
         TEMPERATURE IN CENTIGRADE
AFB    - AIR FORCE BASE
         LUKE AFB IS LUKE AIR FORCE BASE
         DAVIS-MONTHAN IS DAVIS-MONTHAN AIR FORCE BASE
NAS    - NAVAL AIR STATION
         EL CENTRO NAS IS EL CENTRO NAVAL AIR STATION
N/A    - NOT AVAILABLE



USA.gov is the U.S. government's official web portal to all federal, state and local government web resources and services.